Location: Maccacari
(45.1333°N, 11.1333°E)
Time: 19:38:24
(UTC+00:00)

Tiros 1 despin weight - Pass Details

Date: 27 January 2021
Orbit: 593 x 642 km, 48.2° (Epoch: 26 February)

Event Time Altitude Azimuth Distance (km) Brightness Sun altitude
Rises 14:21:36 0° 266° (W) 2,892 ? 15.4°
Reaches altitude 10° 14:23:57 10° 270° (W) 1,979 ? 15.1°
Maximum altitude 14:28:27 62° 351° (N) 687 ? 14.5°
Drops below altitude 10° 14:32:54 10° 73° (ENE) 1,950 ? 14.0°
Sets 14:35:12 0° 77° (ENE) 2,847 ? 13.7°
